Regional Weather Roundup
Issued by NWS Little Rock, AR

Home | Current Version | Previous Version | Graphics & Text | Print | Product List | Glossary On
Versions: 1 2 3 4 5 6 7 8 9 10 11 12 13 14 15 16 17 18 19 20 21 22 23 24 25 26 27 28 29 30 31 32 33 34 35 36 37 38 39 40 41 42 43 44 45 46 47 48 49 50
000
ASUS44 KLZK 201005
RWRLZK

WEATHER ROUNDUP FOR ARKANSAS
NATIONAL WEATHER SERVICE LITTLE ROCK AR
500 AM CDT WED AUG 20 2014

NOTE: "FAIR" INDICATES FEW OR NO CLOUDS BELOW 12,000 FEET WITH NO
SIGNIFICANT WEATHER AND/OR OBSTRUCTIONS TO VISIBILITY.

ARZ001-003-010-029-201100-
NORTHWEST ARKANSAS

CITY           SKY/WX    TMP DP  RH WIND       PRES   REMARKS
FAYETTEVILLE   CLEAR     70  69  97 SW3       29.95S
FORT SMITH     CLEAR     74  72  93 CALM      29.92R
HARRISON       PTCLDY    77  68  73 W6        29.95S
BENTONVILLE    PTCLDY    72  68  88 S5        29.95S
ROGERS         PTCLDY    75  69  81 S8        29.95F
SILOAM SPGS    CLEAR     73  64  73 S6        29.95S
HIGHFILL       CLEAR     72  68  87 CALM      29.94S
$$

ARZ004-005-016-201100-
NORTH CENTRAL ARKANSAS

CITY           SKY/WX    TMP DP  RH WIND       PRES   REMARKS
BATESVILLE     CLEAR     77  73  88 CALM      29.91R
FLIPPIN        CLEAR     73  66  78 CALM      29.93R
MTN HOME       CLEAR     75  70  84 SW5       29.92R
$$

ARZ040-041-201100-
WEST CENTRAL ARKANSAS

CITY           SKY/WX    TMP DP  RH WIND       PRES   REMARKS
MENA           CLEAR     73  70  88 CALM      29.98S
MOUNT IDA      CLEAR     70  69  97 CALM      29.95R
$$

ARZ009-017-025-026-028-201100-
NORTHEAST ARKANSAS

CITY           SKY/WX    TMP DP  RH WIND       PRES   REMARKS
CORNING        FAIR      73  73 100 SW8       29.89R
JONESBORO      CLEAR     77  75  93 SW5       29.90R
NEWPORT        CLEAR     75  74  97 S10       29.91R
WALNUT RIDGE   CLEAR     77  72  83 SW8       29.89R
BLYTHEVILLE    CLEAR     77  76  96 SW8       29.91R
$$

ARZ022-023-033-042-044-201100-
CENTRAL ARKANSAS

CITY           SKY/WX    TMP DP  RH WIND       PRES   REMARKS
LITTLE ROCK    CLEAR     77  73  87 SW7       29.94R
N LITTLE ROCK    N/A     76  75  95 SW7       29.94R
JACKSONVILLE   CLEAR     76  75  96 SW8       29.93R
SEARCY           N/A     74  74 100 CALM        N/A
HOT SPRINGS    CLEAR     74  71  91 CALM      29.97R
RUSSELLVILLE   CLEAR     73  72  96 CALM      29.92S FOG
CLINTON        FAIR      70  70 100 CALM      29.94R FOG
$$

ARZ036-201100-
EAST ARKANSAS

CITY           SKY/WX    TMP DP  RH WIND       PRES   REMARKS
WEST MEMPHIS   CLEAR     77  76  96 S5        29.92R
$$

ARZ050-053-066-070-073-201100-
SOUTHWEST ARKANSAS

CITY           SKY/WX    TMP DP  RH WIND       PRES   REMARKS
ARKADELPHIA    FAIR      73  72  97 CALM      29.96S
CAMDEN         CLEAR     70  68  94 CALM      29.96R
TEXARKANA      CLEAR     71  68  90 CALM      29.96R
EL DORADO      CLEAR     70  69  97 CALM      29.97R
DE QUEEN       CLEAR     69  69 100 CALM      29.94R FOG
$$

ARZ056-057-069-201100-
SOUTHEAST ARKANSAS

CITY           SKY/WX    TMP DP  RH WIND       PRES   REMARKS
PINE BLUFF     CLEAR     75  70  84 SW6       29.95R
STUTTGART      CLEAR     75  72  88 SW9       29.95R
MONTICELLO     CLEAR     75  71  87 W3        29.97R

$$




USA.gov is the U.S. government's official web portal to all federal, state and local government web resources and services.